Location: Asheville, NC
(35.6000°N, 82.5500°W)
Time: 18:51:48
(UTC-04:00)

Vanguard 2 Rocket - Pass Details

Date: 16 December 2017
Orbit: 553 x 3328 km, 32.9° (Epoch: 22 April)

Event Time Altitude Azimuth Distance (km) Brightness Sun altitude
Exits shadow 03:10:19 15° 182° (S) 5,124 10.6 -52.5°
Drops below altitude 10° 03:12:54 10° 174° (S) 5,399 10.8 -51.9°
Sets 03:17:29 0° 163° (SSE) 6,033 11.2 -51.0°
